Flight Track Log - Related Links

Times and Time Zones

All times are in EDT time to prevent confusion due to time zone crossing. See the FSR411 flight status page for this flight to view local times or setup timezone preferences in your user account.

Time Position Orientation Groundspeed Altitude Reporting Facility
EDT Latitude Longitude Course Direction KTS MPH feet Rate Location/Type
Sun 09:29:55 PM 43.2100 -89.2961 76° East 236 272 8,800  Level Chicago Center
Sun 09:30:57 PM 43.1642 -89.2214 130° Southeast 252 290 12,800 3,823 Climbing Chicago Center
Sun 09:31:59 PM 43.1031 -89.1283 132° Southeast 310 357 16,700 2,952 Climbing Chicago Center
Sun 09:33:01 PM 43.0292 -89.0136 131° Southeast 382 440 18,900 1,104 Climbing Chicago Center
Sun 09:34:00 PM 42.6172 -89.1235 164° South  Level FlightAware Approximate
Sun 09:34:04 PM 42.9047 -88.9131 149° Southeast 438 504 19,000  Level Chicago Center
Sun 09:35:06 PM 42.7831 -88.8864 171° South 444 511 19,000  Level Chicago Center
Sun 09:36:08 PM 42.6614 -88.8578 170° South 445 512 19,000  Level Chicago Center
Sun 09:37:10 PM 42.5389 -88.8292 170° South 447 514 19,000  Level Chicago Center
Sun 09:38:12 PM 42.4169 -88.8011 170° South 446 513 19,000  Level Chicago Center
Sun 09:39:13 PM 42.2861 -88.7742 171° South 447 514 19,000  Level Chicago Center
Sun 09:40:15 PM 42.1653 -88.7467 170° South 440 506 19,000  Level Chicago Center
Sun 09:41:17 PM 42.0217 -88.7125 170° South 438 504 19,000  Level Chicago Center
Sun 09:42:19 PM 41.9031 -88.6833 170° South 436 502 19,000  Level Chicago Center
Sun 09:43:21 PM 41.7831 -88.6561 170° South 438 504 19,000  Level Chicago Center
Sun 09:44:23 PM 41.6639 -88.6311 171° South 437 503 19,000  Level Chicago Center
Sun 09:45:25 PM 41.5431 -88.6050 171° South 441 507 19,000  Level Chicago Center
Sun 09:46:26 PM 41.4242 -88.5772 170° South 440 506 19,000  Level Chicago Center
Sun 09:47:28 PM 41.2806 -88.5478 171° South 441 507 19,000  Level Chicago Center
Sun 09:48:30 PM 41.1611 -88.5214 171° South 439 505 19,000  Level Chicago Center
Sun 09:49:32 PM 41.0394 -88.4947 171° South 444 511 19,000 -49 Level Chicago Center
Sun 09:50:33 PM 40.9169 -88.4658 170° South 450 518 18,900 -780 Descending Chicago Center
Sun 09:51:35 PM 40.8006 -88.4411 171° South 427 491 17,400 -1,984 Descending Chicago Center
Sun 09:52:37 PM 40.6875 -88.4153 170° South 417 480 14,800 -2,780 Descending Chicago Center
Sun 09:53:38 PM 40.5594 -88.3886 171° South 394 453 11,700 -2,488 Descending Chicago Center
Sun 09:54:40 PM 40.4669 -88.3683 171° South 348 400 9,700 -1,839 Descending Chicago Center
Sun 09:55:42 PM 40.3867 -88.3494 170° South 304 350 7,900 -1,756 Descending Chicago Center
Sun 09:56:43 PM 40.3117 -88.3353 172° South 282 325 6,100 -1,610 Descending Chicago Center
Sun 09:57:45 PM 40.2389 -88.3381 182° South 265 305 4,600 -1,258 Descending Chicago Center
Sun 09:58:47 PM 40.1600 -88.3494 186° South 258 297 3,500 -1,065 Descending Chicago Center
Sun 10:00:00 PM 40.0651 -88.2773 166° South  Level FlightAware Approximate
Sun 10:07:00 PM 40.0333 -88.2667 166° South  Level FlightAware Approximate
Sun 10:08:00 PM 40.0388 -88.2778 166° South  Level Estimated
Sun 10:09:00 PM 40.0388 -88.2778 166° South  Level Estimated
Sun 10:10:00 PM 40.0388 -88.2778 166° South  Level Estimated
Sun 10:11:00 PM 40.0388 -88.2778 166° South  Level Estimated

Login

Don't have an account? Register now (free) for customized features, flight alerts, and more!